Woman Race

La Liégeoise - Liège (12.00 km)

dimanche 08 mars 2020

Vous pouvez trouver Le classement original sur : http://ultratiming.be
WOMAN RACE
LA LIÉGEOISE - LIÈGE
DISTANCE 11.98 km
dimanche 08 mars 2020
 
Place dos Nom Temps Temps/km Vitesse
01:00:00          
1 12189 PHILIS LAMBRINY 0:47:55 04:00 15.00
2 12270 MAQUET CÉCILE 0:54:04 04:31 13.29
3 12155 KENENS CÉLINE 0:54:16 04:32 13.24
4 12271 DELHAYE MARIE FRANCE 0:54:19 04:32 13.23
5 12078 PAPS CECILE 0:54:52 04:35 13.10
6 12022 BRACONE CHRISTELLE 0:54:53 04:35 13.10
7 12072 MORNARD MARIE 0:54:54 04:35 13.09
8 12148 DIAZ RUIZ MAGALY 0:55:03 04:36 13.06
9 12131 RAONE LAETITIA 0:55:04 04:36 13.05
10 12188 MARTINEZ AMELIA 0:56:03 04:41 12.82
11 12104 COLLIN MANON 0:56:12 04:41 12.79
12 6760 SFERRAZZA PAPA DEBORAH 0:56:15 04:42 12.78
13 12300 HUFFNER GÉRALDINE 0:56:44 04:44 12.67
14 9542 PIRET LOLA 0:56:47 04:44 12.66
15 12224 FALLA ALICE 0:56:52 04:45 12.64
16 12129 VANWYNSBERGHE ALINE 0:56:54 04:45 12.63
17 12050 LA ROSA GIUSI 0:57:00 04:45 12.61
18 12076 DUCULOT MANON 0:57:03 04:46 12.60
19 12286 SEYEN SANDRINE 0:57:05 04:46 12.59
20 12190 MULDERS ESTELLE 0:57:10 04:46 12.57
21 12122 BURHENNE MICHELLE 0:57:25 04:48 12.52
22 9550 VANNESTE LIESBETH 0:57:27 04:48 12.51
23 12257 KALIMIRA CÉLINE 0:57:40 04:49 12.46
24 12193 COX ANNE-SOPHIE 0:57:52 04:50 12.42
25 12183 COLLELUORI SYLVIA 0:58:23 04:52 12.31
26 12160 LIBIOUL VALERIE 0:58:31 04:53 12.28
27 12004 DUBOURG ANAIS 0:58:39 04:54 12.25
28 12001 LO BUE MARIA 0:58:59 04:55 12.19
29 12005 CHAMPION CAROLINE 0:59:15 04:57 12.13
30 12281 BULKAERT JUSTINE 0:59:15 04:57 12.13
31 12194 MAKHLOUFI CLAIRE 0:59:24 04:58 12.10
32 12100 LAURIE SALEE 0:59:31 04:58 12.08
33 12099 NOEL PATRICIA 0:59:32 04:58 12.07
34 12127 AUGERON AMÉLIE 0:59:33 04:58 12.07
35 12145 HAMER ANNE 0:59:37 04:59 12.06
36 12230 COUNE LAURIE 0:59:54 05:00 12.00
37 12179 BIHAIN MÉLODY 0:59:56 05:00 11.99
38 12275 NADIN BARBARA 0:59:57 05:00 11.99
39 12288 NEUVILLE CAROLINE 1:00:31 05:03 11.88
40 12064 THOUMPSIN LÉA 1:00:36 05:04 11.86
41 12249 EVRARD LE RESTE JULIE 1:00:44 05:04 11.83
42 12119 VAN GORP MANON 1:00:52 05:05 11.81
43 12256 PARIS CATHERINE 1:00:57 05:05 11.79
44 12077 BRUNDSEAUX CLAIRE 1:01:11 05:06 11.75
45 12009 BLASZCZYK STEPHANIE 1:01:26 05:08 11.70
46 12297 GOBLET MAUD 1:01:29 05:08 11.69
47 12133 ANTOINE NATHALIE 1:01:42 05:09 11.65
48 12034 MAISSON JUSTINE 1:01:49 05:10 11.63
49 12269 GRILL CHRISTINE 1:01:56 05:10 11.61
50 12217 SANDRINE FINFE 1:02:05 05:11 11.58
51 12008 ARNOULD CATHERINE 1:02:31 05:13 11.50
52 12132 DELFOSSE LISA 1:02:36 05:14 11.48
53 12215 GLOBEN NOEMI 1:02:45 05:14 11.45
54 12264 NATHALIE DATTOLI 1:02:53 05:15 11.43
55 12255 HURARD VALÉRIE 1:03:07 05:16 11.39
56 12042 MEULDERS CAMILLE 1:03:10 05:16 11.38
57 12263 EL-ASRI YASMINA 1:03:25 05:18 11.33
58 12236 SMEETS JUSTINE 1:03:26 05:18 11.33
59 12054 GONDA ELISE 1:03:27 05:18 11.33
60 12066 GLESNER LAURE-ANNE 1:03:28 05:18 11.32
61 12102 JEAN AGLAË 1:03:31 05:18 11.32
62 12248 SAVERINO-WEYER MARTINE 1:03:32 05:18 11.31
63 6759 LIBERT JOËLLE 1:03:35 05:18 11.30
64 12267 VANLEEUW CHARLOTTE 1:04:06 05:21 11.21
65 12204 MOËS ISABELLE 1:04:15 05:22 11.19
66 12027 HENRARD AMANDINE 1:04:43 05:24 11.11
67 12101 JEAN FAUSTINE 1:04:48 05:25 11.09
68 6753 DERIDDER CHARLOTTE 1:05:02 05:26 11.05
69 12196 GENDARME PASCALINE 1:05:02 05:26 11.05
70 12118 ZOU TIFA 1:05:30 05:28 10.97
71 12200 VANDEN BULCKE MÉLANIE 1:05:30 05:28 10.97
72 12184 MACORS NANCY 1:05:32 05:28 10.97
73 12123 VANDEWEERD SOLÈNE 1:05:35 05:28 10.96
74 12075 FOUBERT VICTORIA 1:05:37 05:29 10.95
75 12124 LENGLER MANON 1:05:42 05:29 10.94
76 12261 VANLEEUW VALENTINE 1:05:47 05:29 10.93
77 12169 COHEUR MURIELLE 1:05:50 05:30 10.92
78 12276 MOINET MARIE-NOËLLE 1:05:51 05:30 10.91
79 12030 TROISFONTAINES MARINE 1:05:52 05:30 10.91
80 12047 GILSON SYLVIE 1:05:53 05:30 10.91
81 12191 COUSIN JUSTINE 1:05:55 05:30 10.90
82 12167 FALLA ELODIE 1:05:55 05:30 10.90
83 6751 CROUX AMANDINE 1:06:03 05:31 10.88
84 12126 FRANSEN MARIE 1:06:03 05:31 10.88
85 12113 VAN DEN HEUVEL ANNA 1:06:04 05:31 10.88
86 12114 FASTRÉ LAURIE 1:06:05 05:31 10.88
87 12096 BERTRAND AUDREY 1:06:08 05:31 10.87
88 12006 COLLARD CLARA 1:06:10 05:31 10.86
89 12068 TESTOURI SORAYA 1:06:11 05:31 10.86
90 12166 DOUCET EMILIE 1:06:16 05:32 10.85
91 12250 BODSON STEPHANIE 1:06:22 05:32 10.83
92 12018 JOVENAU CLAUDE 1:06:29 05:33 10.81
93 12279 ERNOTTE JULIE 1:06:32 05:33 10.80
94 6752 LASTRA AINARA 1:06:51 05:35 10.75
95 12243 SIMON LYDIANE 1:07:01 05:36 10.72
96 12214 COURA GIULIA 1:07:07 05:36 10.71
97 12212 DEVOS PAULINE 1:07:07 05:36 10.71
98 12260 ARQUÉ ARMENGOL ANNA 1:07:23 05:38 10.67
99 12065 DILIBERTO ADRIANE 1:07:41 05:39 10.62
100 12195 VIEGAS NATHALIE 1:07:56 05:40 10.58
101 12192 DE COSTER JENNIFER 1:07:58 05:40 10.58
102 12003 LORRAIN ANNA 1:08:05 05:41 10.56
103 12063 THOMAS MARYSE 1:08:05 05:41 10.56
104 12225 MERCIER AMÉLIE 1:08:11 05:42 10.54
105 12117 GIUDICE CHRISTEL 1:08:12 05:42 10.54
106 12216 DOUMEN ALEXANDRA 1:08:17 05:42 10.53
107 12292 DEWANDRE CYRIELLE 1:08:17 05:42 10.53
108 12028 FADEUR MARJORIE 1:08:26 05:43 10.50
109 12029 LOUIS EMILIE 1:08:26 05:43 10.50
110 12069 SCAFF LAURIE 1:08:26 05:43 10.50
111 12053 BURLET STEPHANIE 1:08:40 05:44 10.47
112 12298 CASSARA FLORENCE 1:08:40 05:44 10.47
113 12295 WERNER NOÉMIE 1:08:40 05:44 10.47
114 12262 JADIN GERALDINE 1:08:40 05:44 10.47
115 12219 TIHON BENEDICTE 1:09:03 05:46 10.41
116 12220 FERON CLARA 1:09:03 05:46 10.41
117 12289 MAGGI JULIE 1:09:25 05:48 10.35
118 12074 PIROTTE MYRIEM 1:09:32 05:48 10.34
119 12252 CONSTANT LOUISA 1:09:34 05:48 10.33
120 12228 SCHEEN EMILIE 1:09:36 05:49 10.33
121 12253 CONSTANT JUSTINE 1:09:36 05:49 10.33
122 12185 MULLER DELPHINE 1:09:38 05:49 10.32
123 12002 DELCOURT SOPHIE 1:09:44 05:49 10.31
124 12019 BORDIGONI CLAUDIA 1:09:44 05:49 10.31
125 12299 DECHAMPS CLARA 1:09:48 05:50 10.30
126 12218 SERVAIS ANNE SOPHIE 1:09:51 05:50 10.29
127 12142 PIRLOT NATHALIE 1:09:54 05:50 10.28
128 12205 SCARAFONE NATACHA 1:09:55 05:50 10.28
129 12121 CUSTERS KATHLEEN 1:10:05 05:51 10.26
130 12120 BALLAND LAURANNE 1:10:05 05:51 10.26
131 12242 MERTENS COLETTE 1:10:21 05:52 10.22
132 12274 PHAN KIM-THU 1:10:44 05:54 10.16
133 12227 EL GUERTIT ASSMÂA 1:10:47 05:55 10.15
134 12186 DELCOMINETTE CELINE 1:11:00 05:56 10.12
135 12147 MONFORT CAROLINE 1:11:01 05:56 10.12
136 12206 CAROLINE HENDRICÉ 1:11:11 05:57 10.10
137 12282 CESAR MARINE 1:11:11 05:57 10.10
138 12060 ROSA LAURENCE 1:11:18 05:57 10.08
139 12187 HARTKOPF FRANCOISE 1:11:21 05:57 10.07
140 12138 VANNESTE DELPHINE 1:11:21 05:57 10.07
141 6754 BARAHDADI NADIA 1:11:29 05:58 10.05
142 12080 DUBREUCQ MARIE 1:11:35 05:59 10.04
143 12082 DESMIT LAURA 1:11:35 05:59 10.04
144 12048 DEVROYE ANNE 1:11:37 05:59 10.04
145 12134 DAVID BERNADETTE 1:11:38 05:59 10.03
146 12285 ZARIRAJAA RAJAA ZIRA 1:11:41 05:59 10.03
147 12087 PIROTTE VANESSA 1:11:45 05:59 10.02
148 12258 DEFOUR CAROLINE 1:11:46 05:59 10.02
149 12229 BOROWSKI ALEXANDRA 1:11:47 06:00 10.01
150 12259 MILANTS NATHALIE 1:11:49 06:00 10.01
151 12162 ORBAN CELINE 1:11:52 06:00 10.00
152 12161 RIXHON FLORENCE 1:12:01 06:01 9.98
153 12178 WERY FANETTE 1:12:26 06:03 9.92
154 12211 DELHEZ ADELINE 1:12:34 06:03 9.90
155 12247 CHARLOTTE LENELLE 1:13:11 06:07 9.82
156 12246 DEBROUX ANNICK 1:13:11 06:07 9.82
157 12171 LAPRAILLE DELPHINE 1:13:31 06:08 9.78
158 12154 BODSON JEROMINE 1:13:32 06:08 9.77
159 12232 BRIGITTE HUGUE 1:13:38 06:09 9.76
160 12158 CHENOT FREDERIQUE 1:13:43 06:09 9.75
161 12157 ZANETTI CHRISTINE 1:13:44 06:09 9.75
162 12116 PIRON CLAUDINE 1:13:44 06:09 9.75
163 12141 SABRINA FAUCONNIER 1:13:45 06:09 9.75
164 12140 GEMIS CORALIE 1:13:45 06:09 9.75
165 12241 HABRAN LAURA 1:13:46 06:09 9.74
166 12237 BONMARIAGE SARAH 1:13:59 06:11 9.72
167 12201 QUESADA KELLY 1:14:18 06:12 9.67
168 12202 PENDERS VIRGINIE 1:14:31 06:13 9.65
169 12244 COCHIN LAETICIA 1:14:44 06:14 9.62
170 12221 GUNAYDIN ZEHRA 1:14:51 06:15 9.60
171 12097 AKGOZ HATICE 1:15:11 06:17 9.56
172 12011 JACQUET MAGALI 1:15:12 06:17 9.56
173 12073 GRECO GIULIA 1:15:13 06:17 9.56
174 12013 LEBAS AUDREY 1:15:15 06:17 9.55
175 12268 SCHMITZ VIRGINIE 1:15:26 06:18 9.53
176 6761 VILLAMONTE GINA 1:15:38 06:19 9.50
177 12143 DUPONT CHLOÉ 1:15:43 06:19 9.49
178 12251 VAESSEN SARAH 1:15:44 06:19 9.49
179 12058 KECH CHRISTELLE 1:15:46 06:19 9.49
180 12055 LYDAKIS DELPHINE 1:15:53 06:20 9.47
181 9545 DEFREGNE SOPHIE 1:15:58 06:20 9.46
182 12051 THIRY STEPHANIE 1:16:03 06:21 9.45
183 12043 VERDONE PALMINA 1:16:04 06:21 9.45
184 12278 HERKENNE AURÉLIE 1:16:10 06:21 9.44
185 12272 SORCE SILVIE 1:16:10 06:21 9.44
186 12273 RENARD CHRISTINE 1:16:10 06:21 9.44
187 12103 CUYX SABRINA 1:16:35 06:24 9.39
188 12277 MEEUS SHANA 1:16:39 06:24 9.38
189 12280 DEGUELDRE VALÉRIE 1:16:39 06:24 9.38
190 12037 GIOT ANNABEL 1:16:53 06:25 9.35
191 12290 LUTHI NATHALIE 1:16:53 06:25 9.35
192 12203 MEUNIER FANNY 1:16:57 06:25 9.34
193 12176 WUYTENS INGRID 1:17:00 06:26 9.33
194 12139 ZEIDLER THERESA 1:17:05 06:26 9.32
195 12180 MERCIER SYLVIE 1:17:05 06:26 9.32
196 12287 RIZZO ADRIANA 1:17:15 06:27 9.30
197 12056 GRANDJEANV@GMAIL.COM VIRGINIE 1:17:16 06:27 9.30
198 12105 KEYMEULEN CHRISTINE 1:17:28 06:28 9.28
199 12234 ERNSTER ALINE 1:17:31 06:28 9.27
200 12235 PONCELET CATHERINE 1:17:31 06:28 9.27
201 12106 LECLERCQ ANNE 1:17:33 06:28 9.27
202 12067 SCHOOFS LAURA 1:17:38 06:29 9.26
203 12181 TIMMERMANS MARIE 1:17:45 06:29 9.24
204 12182 REGINSTER STEPHANIE 1:17:45 06:29 9.24
205 12038 HERMAN VALÉRIE 1:18:15 06:32 9.19
206 12177 GARCIA MARTIN VIRGINIA 1:18:35 06:34 9.15
207 12156 KONEN SOPHIE 1:19:15 06:37 9.07
208 12040 GILLARD NATHALIE 1:19:39 06:39 9.02
209 12223 SPITS ELISE 1:19:52 06:40 9.00
210 12222 HOUBEN LAUREN 1:19:52 06:40 9.00
211 12115 BASTIN NICOLE 1:20:01 06:41 8.98
212 12137 PETRY CATHERINE 1:20:05 06:41 8.98
213 12059 GOFFAUX NATHALIE 1:20:19 06:42 8.95
214 12108 FILON MANON 1:20:23 06:43 8.94
215 12209 DUCULOT CATHELINE 1:20:44 06:44 8.90
216 12210 VANDERWIELEN CÉCILE 1:20:44 06:44 8.90
217 12107 MAWET JUSTINE 1:20:56 06:45 8.88
218 12245 COCHIN WENDY 1:20:57 06:45 8.88
219 12079 ORY VÉRONIQUE 1:21:33 06:48 8.81
220 12010 KNAP LAURA 1:21:40 06:49 8.80
221 12165 LECOMTE BÉNÉDICTE 1:21:44 06:49 8.79
222 12164 LINCÉ BRIGITTE 1:21:44 06:49 8.79
223 12226 VANDEKAETSBECK EMILIE 1:21:44 06:49 8.79
224 12163 KORTHOUDT CLAUDINE 1:21:44 06:49 8.79
225 12152 LACASSE REGINE 1:21:56 06:50 8.77
226 12151 ZAFFUTO DINA 1:21:58 06:51 8.77
227 12170 SENNY AURORE 1:22:08 06:51 8.75
228 12231 DUVIVIER FRANCE 1:22:13 06:52 8.74
229 12110 TRUSGNACH GRAZIELLA 1:22:31 06:53 8.71
230 12093 VANOORSCHOT LOLA 1:22:40 06:54 8.69
231 12070 HENDRICK ÉLODIE 1:22:40 06:54 8.69
232 12125 JORIS SOPHIE 1:23:29 06:58 8.61
233 12094 MAGERA FLORIANE 1:23:33 06:58 8.60
234 12199 PIRLET MARIE 1:23:42 06:59 8.59
235 12130 WÉRY CAROLINE 1:24:02 07:01 8.55
236 12168 PIRARD PATRICIA 1:24:18 07:02 8.53
237 12208 DRESSE CAROLINE 1:24:48 07:05 8.48
238 12207 DELINCE BEATRICE 1:24:49 07:05 8.47
239 12024 COTTENIER DELPHINE 1:25:46 07:10 8.38
240 12023 SONTAG CHRISTINE 1:25:47 07:10 8.38
241 12090 FRAIPONT FRANCOISE 1:25:58 07:11 8.36
242 12062 LAMINE MAGALI 1:25:59 07:11 8.36
243 12173 HAUBRECHTS AURELIE 1:25:59 07:11 8.36
244 9532 LESPIME ARIANE 1:26:37 07:14 8.30
245 12172 SERVAIS DORIANE 1:26:56 07:15 8.27
246 6758 ALLA HOURIA 1:31:34 07:39 7.85
247 12293 BOTTA GIAVANNA 1:33:47 07:50 7.66
248 12291 LOSCIUTO ROSALIE 1:33:53 07:50 7.66
249 12294 BALDEWYNS AUDREY 1:33:54 07:50 7.65
250 12036 12036 N.N. 1:35:25 07:58 7.53
251 12035 LECOUFFE LÉA 1:35:26 07:58 7.53